TimeCDT,TemperatureF,Dew PointF,Humidity,Sea Level PressureIn,VisibilityMPH,Wind Direction,Wind SpeedMPH,Gust SpeedMPH,PrecipitationIn,Events,Conditions,WindDirDegrees,DateUTC
12:52 AM,37.0,34.0,89,30.14,10.0,Calm,Calm,-,N/A,,Overcast,0,2012-11-03 05:52:00
1:38 AM,37.4,33.8,87,30.09,10.0,Calm,Calm,-,N/A,,Overcast,0,2012-11-03 06:38:00
1:52 AM,37.9,34.0,86,30.14,10.0,Calm,Calm,-,N/A,,Overcast,0,2012-11-03 06:52:00
2:52 AM,37.9,35.1,89,30.14,10.0,NW,4.6,-,N/A,,Overcast,310,2012-11-03 07:52:00
3:52 AM,37.0,34.0,89,30.14,10.0,WNW,6.9,-,N/A,,Overcast,300,2012-11-03 08:52:00
4:52 AM,39.0,34.0,82,30.15,10.0,NW,6.9,-,N/A,,Overcast,320,2012-11-03 09:52:00
5:52 AM,39.0,35.1,86,30.15,10.0,WNW,4.6,-,N/A,,Overcast,290,2012-11-03 10:52:00
6:52 AM,37.9,34.0,86,30.16,10.0,WNW,12.7,-,N/A,,Overcast,300,2012-11-03 11:52:00
7:06 AM,37.4,33.8,87,30.11,10.0,WNW,11.5,-,N/A,,Overcast,300,2012-11-03 12:06:00
7:39 AM,37.4,33.8,87,30.12,10.0,NW,11.5,-,N/A,,Overcast,310,2012-11-03 12:39:00
7:52 AM,37.0,34.0,89,30.17,10.0,NW,10.4,-,N/A,,Overcast,310,2012-11-03 12:52:00
8:52 AM,37.9,32.0,79,30.18,10.0,NW,8.1,-,N/A,,Overcast,320,2012-11-03 13:52:00
9:52 AM,37.9,32.0,79,30.19,10.0,NW,10.4,-,N/A,,Overcast,320,2012-11-03 14:52:00
10:52 AM,39.0,30.0,70,30.19,10.0,NNW,13.8,-,N/A,,Overcast,330,2012-11-03 15:52:00
11:52 AM,39.0,30.0,70,30.21,10.0,NNW,12.7,-,N/A,,Overcast,330,2012-11-03 16:52:00
12:52 PM,39.0,28.9,67,30.20,10.0,NNW,12.7,-,N/A,,Overcast,330,2012-11-03 17:52:00
1:25 PM,39.2,30.2,70,30.15,10.0,NNW,13.8,-,N/A,,Overcast,330,2012-11-03 18:25:00
1:32 PM,39.2,30.2,70,30.15,10.0,NNW,16.1,-,N/A,,Overcast,330,2012-11-03 18:32:00
1:52 PM,39.9,30.0,68,30.19,10.0,NW,15.0,-,N/A,,Overcast,320,2012-11-03 18:52:00
2:52 PM,39.9,28.9,65,30.19,10.0,NNW,11.5,-,N/A,,Overcast,330,2012-11-03 19:52:00
3:52 PM,39.9,28.9,65,30.19,10.0,NNW,11.5,-,N/A,,Overcast,330,2012-11-03 20:52:00
4:52 PM,37.9,28.9,70,30.19,10.0,North,11.5,-,N/A,,Overcast,10,2012-11-03 21:52:00
5:52 PM,37.0,28.9,73,30.20,10.0,North,11.5,-,N/A,,Overcast,10,2012-11-03 22:52:00
6:52 PM,36.0,28.0,73,30.21,10.0,North,11.5,-,N/A,,Overcast,10,2012-11-03 23:52:00
7:52 PM,35.1,27.0,72,30.23,10.0,North,6.9,-,N/A,,Overcast,10,2012-11-04 00:52:00
8:52 PM,35.1,27.0,72,30.24,10.0,North,6.9,-,N/A,,Overcast,360,2012-11-04 01:52:00
9:52 PM,34.0,26.1,73,30.23,10.0,NNE,8.1,-,N/A,,Overcast,30,2012-11-04 02:52:00
10:52 PM,33.1,26.1,75,30.23,10.0,NE,6.9,-,N/A,,Overcast,50,2012-11-04 03:52:00
11:52 PM,32.0,25.0,75,30.24,10.0,NE,8.1,-,N/A,,Overcast,50,2012-11-04 04:52:00